Time,TemperatureF,DewpointF,PressureIn,WindDirection,WindDirectionDegrees,WindSpeedMPH,WindSpeedGustMPH,Humidity,HourlyPrecipIn,Conditions,Clouds,dailyrainin,SoftwareType,DateUTC
2013-03-13 00:00:00,39.9,13.2,29.47,West,270,0.0,0.0,33,0.00,,---,0.00,VWS V14.01,2013-03-13 05:00:00,
2013-03-13 00:05:00,39.9,13.2,29.47,West,270,0.0,0.0,33,0.00,,---,0.00,VWS V14.01,2013-03-13 05:05:00,
2013-03-13 00:10:00,39.9,12.5,29.47,West,270,0.0,0.0,32,0.00,,---,0.00,VWS V14.01,2013-03-13 05:10:00,
2013-03-13 00:15:00,39.7,12.3,29.47,West,270,0.0,0.0,32,0.00,,---,0.00,VWS V14.01,2013-03-13 05:15:00,
2013-03-13 00:20:00,39.7,12.3,29.47,West,270,0.0,0.0,32,0.00,,---,0.00,VWS V14.01,2013-03-13 05:20:00,
2013-03-13 00:25:00,39.6,12.1,29.47,West,270,0.0,0.0,32,0.00,,---,0.00,VWS V14.01,2013-03-13 05:25:00,
2013-03-13 00:30:00,39.4,12.0,29.47,West,270,0.0,0.0,32,0.00,,---,0.00,VWS V14.01,2013-03-13 05:30:00,
2013-03-13 00:35:00,39.2,11.8,29.47,West,270,0.0,0.0,32,0.00,,---,0.00,VWS V14.01,2013-03-13 05:35:00,
2013-03-13 00:40:00,39.2,11.8,29.47,West,270,0.0,0.0,32,0.00,,---,0.00,VWS V14.01,2013-03-13 05:40:00,
2013-03-13 00:45:00,39.2,11.8,29.44,West,270,0.0,0.0,32,0.00,,---,0.00,VWS V14.01,2013-03-13 05:45:00,
2013-03-13 00:50:00,39.0,12.4,29.44,West,270,0.0,0.0,33,0.00,,---,0.00,VWS V14.01,2013-03-13 05:50:00,
2013-03-13 00:55:00,38.8,12.2,29.44,West,270,0.0,0.0,33,0.00,,---,0.00,VWS V14.01,2013-03-13 05:55:00,
2013-03-13 01:00:00,38.5,12.6,29.47,West,270,0.0,0.0,34,0.00,,---,0.00,VWS V14.01,2013-03-13 06:00:00,
2013-03-13 01:05:00,38.1,12.2,29.47,West,270,0.0,0.0,34,0.00,,---,0.00,VWS V14.01,2013-03-13 06:05:00,
2013-03-13 01:10:00,37.8,11.9,29.47,West,270,0.0,0.0,34,0.00,,---,0.00,VWS V14.01,2013-03-13 06:10:00,
2013-03-13 01:15:00,37.4,12.3,29.47,West,270,0.0,0.0,35,0.00,,---,0.00,VWS V14.01,2013-03-13 06:15:00,
2013-03-13 01:20:00,37.2,12.7,29.47,West,270,0.0,0.0,36,0.00,,---,0.00,VWS V14.01,2013-03-13 06:20:00,
2013-03-13 01:25:00,37.0,13.2,29.47,West,270,0.0,0.0,37,0.00,,---,0.00,VWS V14.01,2013-03-13 06:25:00,
2013-03-13 01:30:00,37.0,13.8,29.44,West,270,0.0,0.0,38,0.00,,---,0.00,VWS V14.01,2013-03-13 06:30:00,
2013-03-13 01:35:00,36.9,14.2,29.44,West,270,0.0,0.0,39,0.00,,---,0.00,VWS V14.01,2013-03-13 06:35:00,
2013-03-13 01:40:00,36.9,14.2,29.44,West,270,0.0,0.0,39,0.00,,---,0.00,VWS V14.01,2013-03-13 06:40:00,
2013-03-13 01:45:00,36.9,14.2,29.47,West,270,0.0,0.0,39,0.00,,---,0.00,VWS V14.01,2013-03-13 06:45:00,
2013-03-13 01:50:00,36.7,14.1,29.47,West,270,0.0,0.0,39,0.00,,---,0.00,VWS V14.01,2013-03-13 06:50:00,
2013-03-13 01:55:00,36.5,14.5,29.47,West,270,0.0,0.0,40,0.00,,---,0.00,VWS V14.01,2013-03-13 06:55:00,
2013-03-13 02:00:00,36.3,14.3,29.47,West,270,0.0,0.0,40,0.00,,---,0.00,VWS V14.01,2013-03-13 07:00:00,
2013-03-13 02:05:00,36.1,14.2,29.47,West,270,0.0,0.0,40,0.00,,---,0.00,VWS V14.01,2013-03-13 07:05:00,
2013-03-13 02:10:00,35.8,13.8,29.47,West,270,0.0,0.0,40,0.00,,---,0.00,VWS V14.01,2013-03-13 07:10:00,
2013-03-13 02:15:00,35.8,13.8,29.47,West,270,0.0,0.0,40,0.00,,---,0.00,VWS V14.01,2013-03-13 07:15:00,
2013-03-13 02:20:00,35.6,13.7,29.47,West,270,0.0,0.0,40,0.00,,---,0.00,VWS V14.01,2013-03-13 07:20:00,
2013-03-13 02:25:00,35.6,13.7,29.47,West,270,0.0,0.0,40,0.00,,---,0.00,VWS V14.01,2013-03-13 07:25:00,
2013-03-13 02:29:00,35.4,14.1,29.47,West,270,0.0,0.0,41,0.00,,---,0.00,VWS V14.01,2013-03-13 07:29:00,
2013-03-13 02:34:00,35.4,14.1,29.47,West,270,0.0,0.0,41,0.00,,---,0.00,VWS V14.01,2013-03-13 07:34:00,
2013-03-13 02:40:00,35.1,14.3,29.47,West,270,0.0,0.0,42,0.00,,---,0.00,VWS V14.01,2013-03-13 07:40:00,
2013-03-13 02:44:00,35.1,13.8,29.47,West,270,0.0,0.0,41,0.00,,---,0.00,VWS V14.01,2013-03-13 07:44:00,
2013-03-13 02:49:00,35.1,14.3,29.47,West,270,0.0,0.0,42,0.00,,---,0.00,VWS V14.01,2013-03-13 07:49:00,
2013-03-13 02:54:00,35.1,14.3,29.47,West,270,0.0,0.0,42,0.00,,---,0.00,VWS V14.01,2013-03-13 07:54:00,
2013-03-13 02:59:00,35.1,14.3,29.47,West,270,0.0,0.0,42,0.00,,---,0.00,VWS V14.01,2013-03-13 07:59:00,
2013-03-13 03:04:00,35.1,14.3,29.47,West,270,0.0,0.0,42,0.00,,---,0.00,VWS V14.01,2013-03-13 08:04:00,
2013-03-13 03:09:00,35.1,14.3,29.47,West,270,0.0,0.0,42,0.00,,---,0.00,VWS V14.01,2013-03-13 08:09:00,
2013-03-13 03:14:00,35.1,14.3,29.47,West,270,0.0,0.0,42,0.00,,---,0.00,VWS V14.01,2013-03-13 08:14:00,
2013-03-13 03:20:00,35.1,14.3,29.47,West,270,0.0,0.0,42,0.00,,---,0.00,VWS V14.01,2013-03-13 08:20:00,
2013-03-13 03:25:00,34.9,14.1,29.47,West,270,0.0,0.0,42,0.00,,---,0.00,VWS V14.01,2013-03-13 08:25:00,
2013-03-13 03:30:00,34.7,14.0,29.47,West,270,0.0,0.0,42,0.00,,---,0.00,VWS V14.01,2013-03-13 08:30:00,
2013-03-13 03:35:00,34.7,14.5,29.47,West,270,0.0,0.0,43,0.00,,---,0.00,VWS V14.01,2013-03-13 08:35:00,
2013-03-13 03:40:00,34.7,14.5,29.47,West,270,0.0,0.0,43,0.00,,---,0.00,VWS V14.01,2013-03-13 08:40:00,
2013-03-13 03:45:00,34.7,14.5,29.47,West,270,0.0,0.0,43,0.00,,---,0.00,VWS V14.01,2013-03-13 08:45:00,
2013-03-13 03:50:00,34.7,14.5,29.47,West,270,0.0,0.0,43,0.00,,---,0.00,VWS V14.01,2013-03-13 08:50:00,
2013-03-13 03:54:00,34.7,14.5,29.47,West,270,0.0,0.0,43,0.00,,---,0.00,VWS V14.01,2013-03-13 08:54:00,
2013-03-13 03:59:00,34.7,14.5,29.47,West,270,0.0,0.0,43,0.00,,---,0.00,VWS V14.01,2013-03-13 08:59:00,
2013-03-13 04:04:00,34.7,14.5,29.47,West,270,0.0,0.0,43,0.00,,---,0.00,VWS V14.01,2013-03-13 09:04:00,
2013-03-13 04:09:00,34.5,14.3,29.47,West,270,0.0,0.0,43,0.00,,---,0.00,VWS V14.01,2013-03-13 09:09:00,
2013-03-13 04:14:00,34.5,14.9,29.47,West,270,0.0,0.0,44,0.00,,---,0.00,VWS V14.01,2013-03-13 09:14:00,
2013-03-13 04:19:00,34.3,14.7,29.47,West,270,0.0,0.0,44,0.00,,---,0.00,VWS V14.01,2013-03-13 09:19:00,
2013-03-13 04:24:00,34.3,14.7,29.47,West,270,0.0,0.0,44,0.00,,---,0.00,VWS V14.01,2013-03-13 09:24:00,
2013-03-13 04:29:00,34.2,14.5,29.47,West,270,0.0,0.0,44,0.00,,---,0.00,VWS V14.01,2013-03-13 09:29:00,
2013-03-13 04:34:00,34.2,14.5,29.47,West,270,0.0,0.0,44,0.00,,---,0.00,VWS V14.01,2013-03-13 09:34:00,
2013-03-13 04:39:00,34.3,15.2,29.47,West,270,0.0,0.0,45,0.00,,---,0.00,VWS V14.01,2013-03-13 09:39:00,
2013-03-13 04:44:00,34.3,14.7,29.47,West,270,0.0,0.0,44,0.00,,---,0.00,VWS V14.01,2013-03-13 09:44:00,
2013-03-13 04:49:00,34.5,14.9,29.47,West,270,0.0,0.0,44,0.00,,---,0.00,VWS V14.01,2013-03-13 09:49:00,
2013-03-13 04:54:00,34.7,15.6,29.47,West,270,0.0,0.0,45,0.00,,---,0.00,VWS V14.01,2013-03-13 09:54:00,
2013-03-13 04:59:00,35.1,15.9,29.47,West,270,0.0,0.0,45,0.00,,---,0.00,VWS V14.01,2013-03-13 09:59:00,
2013-03-13 05:04:00,35.2,16.0,29.47,West,270,0.0,0.0,45,0.00,,---,0.00,VWS V14.01,2013-03-13 10:04:00,
2013-03-13 05:09:00,35.4,16.2,29.47,West,270,0.0,0.0,45,0.00,,---,0.00,VWS V14.01,2013-03-13 10:09:00,
2013-03-13 05:14:00,35.8,16.5,29.47,West,270,0.0,0.0,45,0.00,,---,0.00,VWS V14.01,2013-03-13 10:14:00,
2013-03-13 05:19:00,35.6,15.9,29.47,West,270,0.0,0.0,44,0.00,,---,0.00,VWS V14.01,2013-03-13 10:19:00,
2013-03-13 05:24:00,35.6,15.9,29.47,West,270,0.0,0.0,44,0.00,,---,0.00,VWS V14.01,2013-03-13 10:24:00,
2013-03-13 05:29:00,35.6,15.9,29.47,West,270,0.0,0.0,44,0.00,,---,0.00,VWS V14.01,2013-03-13 10:29:00,
2013-03-13 05:34:00,35.4,15.7,29.47,West,270,0.0,0.0,44,0.00,,---,0.00,VWS V14.01,2013-03-13 10:34:00,
2013-03-13 05:39:00,35.4,15.7,29.47,West,270,0.0,0.0,44,0.00,,---,0.00,VWS V14.01,2013-03-13 10:39:00,
2013-03-13 05:44:00,35.6,15.9,29.47,West,270,0.0,0.0,44,0.00,,---,0.00,VWS V14.01,2013-03-13 10:44:00,
2013-03-13 05:49:00,35.8,16.0,29.47,West,270,0.0,0.0,44,0.00,,---,0.00,VWS V14.01,2013-03-13 10:49:00,
2013-03-13 05:54:00,35.8,15.5,29.47,West,270,0.0,0.0,43,0.00,,---,0.00,VWS V14.01,2013-03-13 10:54:00,
2013-03-13 05:59:00,36.1,15.8,29.50,NW,315,0.0,0.0,43,0.00,,---,0.00,VWS V14.01,2013-03-13 10:59:00,
2013-03-13 06:04:00,36.1,15.8,29.50,WNW,292,1.6,2.5,43,0.00,,---,0.00,VWS V14.01,2013-03-13 11:04:00,
2013-03-13 06:09:00,36.3,16.0,29.50,WNW,292,0.0,2.2,43,0.00,,---,0.00,VWS V14.01,2013-03-13 11:09:00,
2013-03-13 06:14:00,36.3,15.4,29.50,WNW,292,0.0,0.0,42,0.00,,---,0.00,VWS V14.01,2013-03-13 11:14:00,
2013-03-13 06:19:00,36.1,15.3,29.50,WNW,292,0.0,1.3,42,0.00,,---,0.00,VWS V14.01,2013-03-13 11:19:00,
2013-03-13 06:24:00,36.3,15.4,29.50,WNW,292,0.0,0.0,42,0.00,,---,0.00,VWS V14.01,2013-03-13 11:24:00,
2013-03-13 06:29:00,36.3,15.4,29.50,WNW,292,0.0,0.0,42,0.00,,---,0.00,VWS V14.01,2013-03-13 11:29:00,
2013-03-13 06:34:00,36.1,15.3,29.50,WNW,292,0.0,0.0,42,0.00,,---,0.00,VWS V14.01,2013-03-13 11:34:00,
2013-03-13 06:39:00,36.1,14.7,29.50,WNW,292,0.0,0.0,41,0.00,,---,0.00,VWS V14.01,2013-03-13 11:39:00,
2013-03-13 06:44:00,36.0,14.6,29.47,WNW,292,0.0,0.0,41,0.00,,---,0.00,VWS V14.01,2013-03-13 11:44:00,
2013-03-13 06:49:00,35.8,14.4,29.47,WNW,292,0.0,0.0,41,0.00,,---,0.00,VWS V14.01,2013-03-13 11:49:00,
2013-03-13 06:54:00,35.6,14.2,29.47,WNW,292,0.0,0.0,41,0.00,,---,0.00,VWS V14.01,2013-03-13 11:54:00,
2013-03-13 06:59:00,35.6,14.2,29.50,WNW,292,0.0,0.0,41,0.00,,---,0.00,VWS V14.01,2013-03-13 11:59:00,
2013-03-13 07:04:00,35.6,14.8,29.50,WNW,292,0.0,0.0,42,0.00,,---,0.00,VWS V14.01,2013-03-13 12:04:00,
2013-03-13 07:09:00,35.6,14.8,29.50,West,270,0.0,0.0,42,0.00,,---,0.00,VWS V14.01,2013-03-13 12:09:00,
2013-03-13 07:14:00,35.6,14.8,29.53,West,270,0.0,0.0,42,0.00,,---,0.00,VWS V14.01,2013-03-13 12:14:00,
2013-03-13 07:19:00,35.4,14.6,29.53,West,270,0.0,0.0,42,0.00,,---,0.00,VWS V14.01,2013-03-13 12:19:00,
2013-03-13 07:24:00,35.4,14.6,29.53,West,270,0.0,0.0,42,0.00,,---,0.00,VWS V14.01,2013-03-13 12:24:00,
2013-03-13 07:29:00,35.4,15.2,29.53,West,270,0.0,0.0,43,0.00,,---,0.00,VWS V14.01,2013-03-13 12:29:00,
2013-03-13 07:34:00,35.6,14.8,29.53,West,270,0.0,0.0,42,0.00,,---,0.00,VWS V14.01,2013-03-13 12:34:00,
2013-03-13 07:39:00,35.8,14.9,29.53,WNW,292,1.6,2.2,42,0.00,,---,0.00,VWS V14.01,2013-03-13 12:39:00,
2013-03-13 07:44:00,36.0,15.1,29.56,West,270,1.1,1.1,42,0.00,,---,0.00,VWS V14.01,2013-03-13 12:44:00,
2013-03-13 07:49:00,36.3,15.4,29.56,WNW,292,1.6,2.0,42,0.00,,---,0.00,VWS V14.01,2013-03-13 12:49:00,
2013-03-13 07:54:00,36.5,15.6,29.56,WNW,292,1.1,1.3,42,0.00,,---,0.00,VWS V14.01,2013-03-13 12:54:00,
2013-03-13 07:59:00,36.9,15.9,29.56,WNW,292,2.5,2.5,42,0.00,,---,0.00,VWS V14.01,2013-03-13 12:59:00,
2013-03-13 08:04:00,37.2,15.7,29.56,WNW,292,0.0,1.6,41,0.00,,---,0.00,VWS V14.01,2013-03-13 13:04:00,
2013-03-13 08:09:00,37.6,15.5,29.56,WNW,292,3.1,3.1,40,0.00,,---,0.00,VWS V14.01,2013-03-13 13:09:00,
2013-03-13 08:14:00,37.9,15.8,29.56,West,270,1.1,2.0,40,0.00,,---,0.00,VWS V14.01,2013-03-13 13:14:00,
2013-03-13 08:19:00,38.5,16.3,29.56,WNW,292,3.1,3.1,40,0.00,,---,0.00,VWS V14.01,2013-03-13 13:19:00,
2013-03-13 08:24:00,39.4,16.5,29.56,WNW,292,1.1,1.1,39,0.00,,---,0.00,VWS V14.01,2013-03-13 13:24:00,
2013-03-13 08:29:00,40.3,17.3,29.56,WNW,292,2.2,2.2,39,0.00,,---,0.00,VWS V14.01,2013-03-13 13:29:00,
2013-03-13 08:34:00,40.1,17.1,29.56,WNW,292,0.0,0.0,39,0.00,,---,0.00,VWS V14.01,2013-03-13 13:34:00,
2013-03-13 08:39:00,39.9,17.0,29.56,NNW,338,2.2,2.2,39,0.00,,---,0.00,VWS V14.01,2013-03-13 13:39:00,
2013-03-13 08:44:00,39.9,17.0,29.56,WNW,292,1.3,2.2,39,0.00,,---,0.00,VWS V14.01,2013-03-13 13:44:00,
2013-03-13 08:49:00,39.9,17.0,29.56,WNW,292,2.7,3.8,39,0.00,,---,0.00,VWS V14.01,2013-03-13 13:49:00,
2013-03-13 08:54:00,39.7,16.2,29.56,WNW,292,3.4,3.4,38,0.00,,---,0.00,VWS V14.01,2013-03-13 13:54:00,
2013-03-13 08:59:00,39.9,15.8,29.56,WNW,292,2.0,2.9,37,0.00,,---,0.00,VWS V14.01,2013-03-13 13:59:00,
2013-03-13 09:04:00,39.9,16.4,29.56,WNW,292,2.0,2.7,38,0.00,,---,0.00,VWS V14.01,2013-03-13 14:04:00,
2013-03-13 09:09:00,40.1,15.9,29.56,WNW,292,3.1,4.0,37,0.00,,---,0.00,VWS V14.01,2013-03-13 14:09:00,
2013-03-13 09:14:00,40.3,16.1,29.56,NW,315,4.0,4.0,37,0.00,,---,0.00,VWS V14.01,2013-03-13 14:14:00,
2013-03-13 09:19:00,40.3,15.5,29.56,WNW,292,1.3,3.6,36,0.00,,---,0.00,VWS V14.01,2013-03-13 14:19:00,
2013-03-13 09:24:00,40.5,15.6,29.56,NNW,338,2.0,2.0,36,0.00,,---,0.00,VWS V14.01,2013-03-13 14:24:00,
2013-03-13 09:29:00,40.8,15.9,29.56,WNW,292,2.7,3.6,36,0.00,,---,0.00,VWS V14.01,2013-03-13 14:29:00,
2013-03-13 09:34:00,41.4,15.8,29.56,West,270,0.9,4.7,35,0.00,,---,0.00,VWS V14.01,2013-03-13 14:34:00,
2013-03-13 09:39:00,41.7,16.1,29.56,WNW,292,1.6,3.1,35,0.00,,---,0.00,VWS V14.01,2013-03-13 14:39:00,
2013-03-13 09:44:00,42.3,15.9,29.56,West,270,1.6,3.8,34,0.00,,---,0.00,VWS V14.01,2013-03-13 14:44:00,
2013-03-13 09:49:00,43.0,15.9,29.56,WNW,292,3.1,3.1,33,0.00,,---,0.00,VWS V14.01,2013-03-13 14:49:00,
2013-03-13 09:54:00,43.2,14.6,29.56,NNE,22,3.4,3.4,31,0.00,,---,0.00,VWS V14.01,2013-03-13 14:54:00,
2013-03-13 09:59:00,43.7,15.1,29.56,WNW,292,2.0,4.3,31,0.00,,---,0.00,VWS V14.01,2013-03-13 14:59:00,
2013-03-13 10:04:00,44.4,14.9,29.56,WNW,292,2.5,3.4,30,0.00,,---,0.00,VWS V14.01,2013-03-13 15:04:00,
2013-03-13 10:09:00,44.8,15.3,29.56,West,270,2.2,2.7,30,0.00,,---,0.00,VWS V14.01,2013-03-13 15:09:00,
2013-03-13 10:14:00,45.1,14.8,29.59,NW,315,2.5,3.6,29,0.00,,---,0.00,VWS V14.01,2013-03-13 15:14:00,
2013-03-13 10:19:00,45.3,14.9,29.59,WNW,292,1.6,3.1,29,0.00,,---,0.00,VWS V14.01,2013-03-13 15:19:00,
2013-03-13 10:24:00,46.0,15.6,29.59,NW,315,2.9,2.9,29,0.00,,---,0.00,VWS V14.01,2013-03-13 15:24:00,
2013-03-13 10:29:00,46.4,15.1,29.59,WNW,292,3.8,4.0,28,0.00,,---,0.00,VWS V14.01,2013-03-13 15:29:00,
2013-03-13 10:34:00,47.3,15.0,29.59,WNW,292,3.1,3.6,27,0.00,,---,0.00,VWS V14.01,2013-03-13 15:34:00,
2013-03-13 10:39:00,46.6,14.4,29.59,NNE,22,2.7,3.4,27,0.00,,---,0.00,VWS V14.01,2013-03-13 15:39:00,
2013-03-13 10:44:00,46.4,14.2,29.59,NNE,22,3.4,3.4,27,0.00,,---,0.00,VWS V14.01,2013-03-13 15:44:00,
2013-03-13 10:49:00,45.9,14.6,29.59,NW,315,2.9,3.1,28,0.00,,---,0.00,VWS V14.01,2013-03-13 15:49:00,
2013-03-13 10:54:00,46.0,14.8,29.59,NE,45,2.0,3.1,28,0.00,,---,0.00,VWS V14.01,2013-03-13 15:54:00,
2013-03-13 10:59:00,46.0,14.8,29.59,NW,315,1.6,3.8,28,0.00,,---,0.00,VWS V14.01,2013-03-13 15:59:00,
2013-03-13 11:04:00,45.9,14.6,29.59,WNW,292,3.4,3.6,28,0.00,,---,0.00,VWS V14.01,2013-03-13 16:04:00,
2013-03-13 11:09:00,45.9,14.6,29.59,NW,315,1.6,4.7,28,0.00,,---,0.00,VWS V14.01,2013-03-13 16:09:00,
2013-03-13 11:14:00,45.9,13.8,29.59,WNW,292,1.3,3.1,27,0.00,,---,0.00,VWS V14.01,2013-03-13 16:14:00,
2013-03-13 11:19:00,46.2,14.9,29.59,NW,315,2.9,4.9,28,0.00,,---,0.00,VWS V14.01,2013-03-13 16:19:00,
2013-03-13 11:23:00,46.0,14.8,29.59,WNW,292,3.6,3.6,28,0.00,,---,0.00,VWS V14.01,2013-03-13 16:23:00,
2013-03-13 11:28:00,46.6,14.4,29.59,WNW,292,2.0,2.5,27,0.00,,---,0.00,VWS V14.01,2013-03-13 16:28:00,
2013-03-13 11:33:00,46.8,14.6,29.59,NNE,22,1.6,2.7,27,0.00,,---,0.00,VWS V14.01,2013-03-13 16:33:00,
2013-03-13 11:38:00,46.4,14.2,29.59,WNW,292,2.5,3.1,27,0.00,,---,0.00,VWS V14.01,2013-03-13 16:38:00,
2013-03-13 11:43:00,46.9,14.7,29.59,NW,315,2.9,3.8,27,0.00,,---,0.00,VWS V14.01,2013-03-13 16:43:00,
2013-03-13 11:48:00,46.9,14.7,29.59,NW,315,3.6,3.6,27,0.00,,---,0.00,VWS V14.01,2013-03-13 16:48:00,
2013-03-13 11:53:00,47.7,15.3,29.59,WSW,248,1.1,3.8,27,0.00,,---,0.00,VWS V14.01,2013-03-13 16:53:00,
2013-03-13 11:58:00,48.4,16.0,29.59,NNE,22,1.6,2.9,27,0.00,,---,0.00,VWS V14.01,2013-03-13 16:58:00,
2013-03-13 12:03:00,48.0,15.6,29.59,WNW,292,2.9,3.4,27,0.00,,---,0.00,VWS V14.01,2013-03-13 17:03:00,
2013-03-13 12:08:00,48.7,15.4,29.59,NNW,338,3.1,4.0,26,0.00,,---,0.00,VWS V14.01,2013-03-13 17:08:00,
2013-03-13 12:13:00,49.6,16.2,29.59,WNW,292,3.8,3.8,26,0.00,,---,0.00,VWS V14.01,2013-03-13 17:13:00,
2013-03-13 12:18:00,50.0,14.6,29.59,WNW,292,2.7,3.4,24,0.00,,---,0.00,VWS V14.01,2013-03-13 17:18:00,
2013-03-13 12:23:00,50.2,14.8,29.59,NW,315,3.6,4.9,24,0.00,,---,0.00,VWS V14.01,2013-03-13 17:23:00,
2013-03-13 12:28:00,50.4,14.9,29.59,NW,315,2.5,4.0,24,0.00,,---,0.00,VWS V14.01,2013-03-13 17:28:00,
2013-03-13 12:33:00,50.5,15.1,29.59,WNW,292,2.9,3.1,24,0.00,,---,0.00,VWS V14.01,2013-03-13 17:33:00,
2013-03-13 12:38:00,51.1,15.6,29.59,NW,315,2.2,3.8,24,0.00,,---,0.00,VWS V14.01,2013-03-13 17:38:00,
2013-03-13 12:43:00,52.0,15.4,29.59,NW,315,2.7,3.4,23,0.00,,---,0.00,VWS V14.01,2013-03-13 17:43:00,
2013-03-13 12:48:00,52.2,13.4,29.59,WSW,248,4.3,4.3,21,0.00,,---,0.00,VWS V14.01,2013-03-13 17:48:00,
2013-03-13 12:53:00,52.5,15.8,29.59,NNW,338,2.5,4.0,23,0.00,,---,0.00,VWS V14.01,2013-03-13 17:53:00,
2013-03-13 12:58:00,53.4,14.5,29.56,West,270,2.7,2.7,21,0.00,,---,0.00,VWS V14.01,2013-03-13 17:58:00,
2013-03-13 13:03:00,53.1,14.2,29.56,NW,315,3.1,4.9,21,0.00,,---,0.00,VWS V14.01,2013-03-13 18:03:00,
2013-03-13 13:08:00,52.9,14.0,29.56,WNW,292,3.4,3.4,21,0.00,,---,0.00,VWS V14.01,2013-03-13 18:08:00,
2013-03-13 13:13:00,53.1,14.2,29.59,SW,225,3.4,3.4,21,0.00,,---,0.00,VWS V14.01,2013-03-13 18:13:00,
2013-03-13 13:18:00,53.1,14.2,29.59,NW,315,3.8,6.5,21,0.00,,---,0.00,VWS V14.01,2013-03-13 18:18:00,
2013-03-13 13:23:00,53.6,13.5,29.59,NW,315,1.6,2.0,20,0.00,,---,0.00,VWS V14.01,2013-03-13 18:23:00,
2013-03-13 13:28:00,53.8,13.7,29.56,NW,315,2.5,3.4,20,0.00,,---,0.00,VWS V14.01,2013-03-13 18:28:00,
2013-03-13 13:33:00,53.8,13.7,29.56,WNW,292,5.8,8.5,20,0.00,,---,0.00,VWS V14.01,2013-03-13 18:33:00,
2013-03-13 13:38:00,54.0,13.8,29.56,SW,225,2.9,3.4,20,0.00,,---,0.00,VWS V14.01,2013-03-13 18:38:00,
2013-03-13 13:43:00,53.8,13.7,29.53,WNW,292,2.9,2.9,20,0.00,,---,0.00,VWS V14.01,2013-03-13 18:43:00,
2013-03-13 13:48:00,54.7,14.4,29.53,West,270,5.4,5.4,20,0.00,,---,0.00,VWS V14.01,2013-03-13 18:48:00,
2013-03-13 13:53:00,54.9,14.6,29.53,NNW,338,3.4,4.3,20,0.00,,---,0.00,VWS V14.01,2013-03-13 18:53:00,
2013-03-13 13:58:00,55.4,15.0,29.53,WNW,292,4.0,5.8,20,0.00,,---,0.00,VWS V14.01,2013-03-13 18:58:00,
2013-03-13 14:03:00,55.4,11.3,29.53,SW,225,5.8,5.8,17,0.00,,---,0.00,VWS V14.01,2013-03-13 19:03:00,
2013-03-13 14:08:00,56.3,15.8,29.53,NNE,22,2.7,2.7,20,0.00,,---,0.00,VWS V14.01,2013-03-13 19:08:00,
2013-03-13 14:13:00,56.3,12.1,29.56,WNW,292,5.6,7.6,17,0.00,,---,0.00,VWS V14.01,2013-03-13 19:13:00,
2013-03-13 14:18:00,55.9,11.8,29.56,NW,315,2.9,2.9,17,0.00,,---,0.00,VWS V14.01,2013-03-13 19:18:00,
2013-03-13 14:23:00,55.9,11.8,29.56,WNW,292,2.5,3.4,17,0.00,,---,0.00,VWS V14.01,2013-03-13 19:23:00,
2013-03-13 14:28:00,56.8,12.5,29.56,WNW,292,2.0,3.1,17,0.00,,---,0.00,VWS V14.01,2013-03-13 19:28:00,
2013-03-13 14:33:00,56.3,12.1,29.56,NW,315,3.1,3.8,17,0.00,,---,0.00,VWS V14.01,2013-03-13 19:33:00,
2013-03-13 14:38:00,56.8,12.5,29.56,North,0,2.5,4.0,17,0.00,,---,0.00,VWS V14.01,2013-03-13 19:38:00,
2013-03-13 14:43:00,56.3,12.1,29.56,NNW,338,2.5,3.6,17,0.00,,---,0.00,VWS V14.01,2013-03-13 19:43:00,
2013-03-13 14:48:00,56.8,12.5,29.56,WNW,292,5.4,5.4,17,0.00,,---,0.00,VWS V14.01,2013-03-13 19:48:00,
2013-03-13 14:53:00,57.2,12.8,29.56,WSW,248,3.6,4.0,17,0.00,,---,0.00,VWS V14.01,2013-03-13 19:53:00,
2013-03-13 14:58:00,57.2,12.8,29.56,NW,315,5.6,5.6,17,0.00,,---,0.00,VWS V14.01,2013-03-13 19:58:00,
2013-03-13 15:03:00,57.7,13.2,29.56,SW,225,2.9,3.8,17,0.00,,---,0.00,VWS V14.01,2013-03-13 20:03:00,
2013-03-13 15:08:00,57.9,13.4,29.56,WNW,292,3.8,3.8,17,0.00,,---,0.00,VWS V14.01,2013-03-13 20:08:00,
2013-03-13 15:13:00,57.9,13.4,29.56,West,270,3.4,3.4,17,0.00,,---,0.00,VWS V14.01,2013-03-13 20:13:00,
2013-03-13 15:18:00,57.9,13.4,29.56,NNW,338,4.0,4.0,17,0.00,,---,0.00,VWS V14.01,2013-03-13 20:18:00,
2013-03-13 15:23:00,57.9,13.4,29.56,WSW,248,2.7,4.3,17,0.00,,---,0.00,VWS V14.01,2013-03-13 20:23:00,
2013-03-13 15:28:00,58.1,13.5,29.53,NNW,338,2.7,3.8,17,0.00,,---,0.00,VWS V14.01,2013-03-13 20:28:00,
2013-03-13 15:33:00,57.7,13.2,29.53,WNW,292,2.7,2.7,17,0.00,,---,0.00,VWS V14.01,2013-03-13 20:33:00,
2013-03-13 15:38:00,57.7,13.2,29.53,NW,315,2.5,2.5,17,0.00,,---,0.00,VWS V14.01,2013-03-13 20:38:00,
2013-03-13 15:43:00,58.1,13.5,29.56,SW,225,4.9,4.9,17,0.00,,---,0.00,VWS V14.01,2013-03-13 20:43:00,
2013-03-13 15:48:00,58.5,13.8,29.56,WNW,292,4.9,4.9,17,0.00,,---,0.00,VWS V14.01,2013-03-13 20:48:00,
2013-03-13 15:53:00,57.9,13.4,29.56,SSW,202,3.6,3.6,17,0.00,,---,0.00,VWS V14.01,2013-03-13 20:53:00,
2013-03-13 15:58:00,58.5,13.8,29.56,West,270,3.6,4.9,17,0.00,,---,0.00,VWS V14.01,2013-03-13 20:58:00,
2013-03-13 16:03:00,58.1,13.5,29.56,West,270,4.3,4.3,17,0.00,,---,0.00,VWS V14.01,2013-03-13 21:03:00,
2013-03-13 16:08:00,57.7,13.2,29.56,NNW,338,3.8,3.8,17,0.00,,---,0.00,VWS V14.01,2013-03-13 21:08:00,
2013-03-13 16:13:00,57.9,13.4,29.53,NNW,338,2.7,2.7,17,0.00,,---,0.00,VWS V14.01,2013-03-13 21:13:00,
2013-03-13 16:18:00,58.1,13.5,29.53,WNW,292,3.8,3.8,17,0.00,,---,0.00,VWS V14.01,2013-03-13 21:18:00,
2013-03-13 16:23:00,56.7,12.4,29.53,NW,315,3.1,3.1,17,0.00,,---,0.00,VWS V14.01,2013-03-13 21:23:00,
2013-03-13 16:28:00,56.7,12.4,29.56,WNW,292,3.1,4.0,17,0.00,,---,0.00,VWS V14.01,2013-03-13 21:28:00,
2013-03-13 16:33:00,57.4,12.9,29.56,WNW,292,1.3,1.3,17,0.00,,---,0.00,VWS V14.01,2013-03-13 21:33:00,
2013-03-13 16:38:00,57.2,12.8,29.56,NW,315,2.9,2.9,17,0.00,,---,0.00,VWS V14.01,2013-03-13 21:38:00,
2013-03-13 16:43:00,57.0,12.7,29.56,NW,315,2.2,2.2,17,0.00,,---,0.00,VWS V14.01,2013-03-13 21:43:00,
2013-03-13 16:48:00,56.8,12.5,29.56,NNW,338,3.4,3.4,17,0.00,,---,0.00,VWS V14.01,2013-03-13 21:48:00,
2013-03-13 16:53:00,56.7,12.4,29.56,NNW,338,1.1,2.9,17,0.00,,---,0.00,VWS V14.01,2013-03-13 21:53:00,
2013-03-13 16:58:00,56.5,12.2,29.56,North,0,2.5,2.5,17,0.00,,---,0.00,VWS V14.01,2013-03-13 21:58:00,
2013-03-13 17:03:00,55.9,11.8,29.56,NNW,338,1.3,1.3,17,0.00,,---,0.00,VWS V14.01,2013-03-13 22:03:00,
2013-03-13 17:08:00,55.4,11.3,29.56,NW,315,2.5,3.4,17,0.00,,---,0.00,VWS V14.01,2013-03-13 22:08:00,
2013-03-13 17:13:00,55.8,11.6,29.56,NW,315,2.5,2.5,17,0.00,,---,0.00,VWS V14.01,2013-03-13 22:13:00,
2013-03-13 17:18:00,54.9,12.2,29.56,NNE,22,2.7,3.1,18,0.00,,---,0.00,VWS V14.01,2013-03-13 22:18:00,
2013-03-13 17:23:00,53.8,11.3,29.56,WNW,292,3.1,3.1,18,0.00,,---,0.00,VWS V14.01,2013-03-13 22:23:00,
2013-03-13 17:28:00,53.1,10.7,29.56,NNW,338,2.0,2.5,18,0.00,,---,0.00,VWS V14.01,2013-03-13 22:28:00,
2013-03-13 17:33:00,52.7,10.4,29.56,WNW,292,3.1,3.1,18,0.00,,---,0.00,VWS V14.01,2013-03-13 22:33:00,
2013-03-13 17:38:00,51.6,10.7,29.56,NW,315,2.5,2.5,19,0.00,,---,0.00,VWS V14.01,2013-03-13 22:38:00,
2013-03-13 17:43:00,51.6,10.7,29.59,NW,315,1.6,2.7,19,0.00,,---,0.00,VWS V14.01,2013-03-13 22:43:00,
2013-03-13 17:48:00,51.3,10.4,29.59,NNW,338,2.7,2.7,19,0.00,,---,0.00,VWS V14.01,2013-03-13 22:48:00,
2013-03-13 17:53:00,50.2,9.5,29.59,WNW,292,3.1,3.1,19,0.00,,---,0.00,VWS V14.01,2013-03-13 22:53:00,
2013-03-13 17:58:00,50.2,9.5,29.59,NW,315,1.3,1.3,19,0.00,,---,0.00,VWS V14.01,2013-03-13 22:58:00,
2013-03-13 18:03:00,49.1,8.6,29.59,NNE,22,0.0,2.7,19,0.00,,---,0.00,VWS V14.01,2013-03-13 23:03:00,
2013-03-13 18:08:00,48.7,8.3,29.59,WNW,292,2.7,2.7,19,0.00,,---,0.00,VWS V14.01,2013-03-13 23:08:00,
2013-03-13 18:13:00,48.2,7.9,29.59,NW,315,1.6,1.6,19,0.00,,---,0.00,VWS V14.01,2013-03-13 23:13:00,
2013-03-13 18:18:00,48.0,7.7,29.59,WNW,292,2.9,2.9,19,0.00,,---,0.00,VWS V14.01,2013-03-13 23:18:00,
2013-03-13 18:23:00,47.3,7.1,29.59,WNW,292,2.0,2.0,19,0.00,,---,0.00,VWS V14.01,2013-03-13 23:23:00,
2013-03-13 18:28:00,47.3,7.1,29.59,NNW,338,1.1,2.7,19,0.00,,---,0.00,VWS V14.01,2013-03-13 23:28:00,
2013-03-13 18:33:00,46.4,6.4,29.59,NW,315,2.5,2.5,19,0.00,,---,0.00,VWS V14.01,2013-03-13 23:33:00,
2013-03-13 18:38:00,46.4,6.4,29.59,NNE,22,2.5,4.0,19,0.00,,---,0.00,VWS V14.01,2013-03-13 23:38:00,
2013-03-13 18:43:00,45.9,7.1,29.59,NW,315,1.1,2.2,20,0.00,,---,0.00,VWS V14.01,2013-03-13 23:43:00,
2013-03-13 18:48:00,45.7,6.9,29.59,WNW,292,0.0,1.3,20,0.00,,---,0.00,VWS V14.01,2013-03-13 23:48:00,
2013-03-13 18:53:00,45.0,6.3,29.59,NNW,338,2.2,2.2,20,0.00,,---,0.00,VWS V14.01,2013-03-13 23:53:00,
2013-03-13 18:58:00,44.8,6.2,29.62,WNW,292,0.0,0.0,20,0.00,,---,0.00,VWS V14.01,2013-03-13 23:58:00,
2013-03-13 19:03:00,44.2,5.7,29.62,NNW,338,0.0,0.0,20,0.00,,---,0.00,VWS V14.01,2013-03-14 00:03:00,
2013-03-13 19:08:00,44.2,5.7,29.62,NNE,22,1.1,1.1,20,0.00,,---,0.00,VWS V14.01,2013-03-14 00:08:00,
2013-03-13 19:13:00,43.3,5.0,29.62,East,90,2.0,2.0,20,0.00,,---,0.00,VWS V14.01,2013-03-14 00:13:00,
2013-03-13 19:18:00,43.2,4.8,29.62,NNW,338,2.0,2.0,20,0.00,,---,0.00,VWS V14.01,2013-03-14 00:18:00,
2013-03-13 19:23:00,42.8,4.5,29.62,NE,45,1.3,1.6,20,0.00,,---,0.00,VWS V14.01,2013-03-14 00:23:00,
2013-03-13 19:28:00,42.6,5.4,29.59,North,0,0.0,0.0,21,0.00,,---,0.00,VWS V14.01,2013-03-14 00:28:00,
2013-03-13 19:33:00,42.3,5.1,29.59,NNW,338,0.0,0.0,21,0.00,,---,0.00,VWS V14.01,2013-03-14 00:33:00,
2013-03-13 19:38:00,41.7,4.7,29.59,NW,315,0.0,0.0,21,0.00,,---,0.00,VWS V14.01,2013-03-14 00:38:00,
2013-03-13 19:43:00,41.5,4.5,29.62,NNW,338,0.0,0.0,21,0.00,,---,0.00,VWS V14.01,2013-03-14 00:43:00,
2013-03-13 19:48:00,41.0,4.1,29.62,NNE,22,0.0,0.0,21,0.00,,---,0.00,VWS V14.01,2013-03-14 00:48:00,
2013-03-13 19:53:00,40.8,3.9,29.62,NNW,338,0.0,0.0,21,0.00,,---,0.00,VWS V14.01,2013-03-14 00:53:00,
2013-03-13 19:58:00,40.6,3.8,29.62,NNW,338,0.0,0.0,21,0.00,,---,0.00,VWS V14.01,2013-03-14 00:58:00,
2013-03-13 20:03:00,40.6,3.8,29.62,NNW,338,0.0,0.0,21,0.00,,---,0.00,VWS V14.01,2013-03-14 01:03:00,
2013-03-13 20:08:00,40.5,3.6,29.62,NNW,338,0.0,0.0,21,0.00,,---,0.00,VWS V14.01,2013-03-14 01:08:00,
2013-03-13 20:13:00,40.3,3.5,29.59,NNW,338,0.0,0.0,21,0.00,,---,0.00,VWS V14.01,2013-03-14 01:13:00,
2013-03-13 20:18:00,39.9,3.2,29.59,NNW,338,0.0,0.0,21,0.00,,---,0.00,VWS V14.01,2013-03-14 01:18:00,
2013-03-13 20:23:00,39.6,2.9,29.59,NNW,338,0.0,0.0,21,0.00,,---,0.00,VWS V14.01,2013-03-14 01:23:00,
2013-03-13 20:28:00,39.4,4.7,29.62,NW,315,0.0,0.0,23,0.00,,---,0.00,VWS V14.01,2013-03-14 01:28:00,
2013-03-13 20:33:00,39.2,4.5,29.62,NW,315,0.0,0.0,23,0.00,,---,0.00,VWS V14.01,2013-03-14 01:33:00,
2013-03-13 20:38:00,39.0,5.3,29.62,NW,315,0.0,0.0,24,0.00,,---,0.00,VWS V14.01,2013-03-14 01:38:00,
2013-03-13 20:43:00,38.8,5.2,29.59,NW,315,0.0,0.0,24,0.00,,---,0.00,VWS V14.01,2013-03-14 01:43:00,
2013-03-13 20:48:00,38.7,5.0,29.59,NW,315,0.0,0.0,24,0.00,,---,0.00,VWS V14.01,2013-03-14 01:48:00,
2013-03-13 20:53:00,38.5,4.8,29.59,NW,315,0.0,0.0,24,0.00,,---,0.00,VWS V14.01,2013-03-14 01:53:00,
2013-03-13 20:58:00,38.1,4.5,29.62,NNE,22,0.0,0.0,24,0.00,,---,0.00,VWS V14.01,2013-03-14 01:58:00,
2013-03-13 21:03:00,37.9,4.4,29.62,NNE,22,0.0,0.0,24,0.00,,---,0.00,VWS V14.01,2013-03-14 02:03:00,
2013-03-13 21:08:00,37.8,4.2,29.62,NNE,22,0.0,0.0,24,0.00,,---,0.00,VWS V14.01,2013-03-14 02:08:00,
2013-03-13 21:13:00,37.6,4.1,29.62,ENE,68,0.0,0.0,24,0.00,,---,0.00,VWS V14.01,2013-03-14 02:13:00,
2013-03-13 21:18:00,37.4,3.9,29.62,NNE,22,0.0,0.0,24,0.00,,---,0.00,VWS V14.01,2013-03-14 02:18:00,
2013-03-13 21:23:00,37.4,3.9,29.62,NNW,338,0.0,0.0,24,0.00,,---,0.00,VWS V14.01,2013-03-14 02:23:00,
2013-03-13 21:28:00,37.2,3.8,29.62,NNW,338,0.0,0.0,24,0.00,,---,0.00,VWS V14.01,2013-03-14 02:28:00,
2013-03-13 21:33:00,37.0,6.2,29.62,North,0,0.0,0.0,27,0.00,,---,0.00,VWS V14.01,2013-03-14 02:33:00,
2013-03-13 21:38:00,36.9,6.0,29.62,North,0,0.0,0.0,27,0.00,,---,0.00,VWS V14.01,2013-03-14 02:38:00,
2013-03-13 21:43:00,36.9,6.0,29.62,NNW,338,0.0,0.0,27,0.00,,---,0.00,VWS V14.01,2013-03-14 02:43:00,
2013-03-13 21:48:00,36.7,5.9,29.62,NNW,338,0.0,0.0,27,0.00,,---,0.00,VWS V14.01,2013-03-14 02:48:00,
2013-03-13 21:53:00,36.5,5.7,29.62,NNW,338,0.0,0.0,27,0.00,,---,0.00,VWS V14.01,2013-03-14 02:53:00,
2013-03-13 21:58:00,36.3,5.6,29.65,NNE,22,0.0,0.0,27,0.00,,---,0.00,VWS V14.01,2013-03-14 02:58:00,
2013-03-13 22:03:00,36.1,5.4,29.65,NNE,22,0.0,0.0,27,0.00,,---,0.00,VWS V14.01,2013-03-14 03:03:00,
2013-03-13 22:08:00,36.0,5.2,29.65,NNW,338,0.0,0.0,27,0.00,,---,0.00,VWS V14.01,2013-03-14 03:08:00,
2013-03-13 22:13:00,35.8,5.1,29.65,NNW,338,0.0,0.0,27,0.00,,---,0.00,VWS V14.01,2013-03-14 03:13:00,
2013-03-13 22:18:00,35.6,6.5,29.65,NNW,338,0.0,0.0,29,0.00,,---,0.00,VWS V14.01,2013-03-14 03:18:00,
2013-03-13 22:23:00,35.4,7.1,29.65,NNW,338,0.0,0.0,30,0.00,,---,0.00,VWS V14.01,2013-03-14 03:23:00,
2013-03-13 22:28:00,35.4,7.1,29.65,NNW,338,0.0,0.0,30,0.00,,---,0.00,VWS V14.01,2013-03-14 03:28:00,
2013-03-13 22:33:00,35.2,6.9,29.65,NNW,338,0.0,0.0,30,0.00,,---,0.00,VWS V14.01,2013-03-14 03:33:00,
2013-03-13 22:38:00,35.1,6.8,29.65,NNW,338,0.0,0.0,30,0.00,,---,0.00,VWS V14.01,2013-03-14 03:38:00,
2013-03-13 22:43:00,35.1,6.8,29.68,NNW,338,0.0,0.0,30,0.00,,---,0.00,VWS V14.01,2013-03-14 03:43:00,
2013-03-13 22:48:00,34.9,6.6,29.68,NNW,338,0.0,0.0,30,0.00,,---,0.00,VWS V14.01,2013-03-14 03:48:00,
2013-03-13 22:53:00,34.9,6.6,29.68,NNW,338,0.0,0.0,30,0.00,,---,0.00,VWS V14.01,2013-03-14 03:53:00,
2013-03-13 22:58:00,34.9,6.6,29.68,NNW,338,0.0,0.0,30,0.00,,---,0.00,VWS V14.01,2013-03-14 03:58:00,
2013-03-13 23:00:00,34.7,6.4,29.68,NNW,338,0.0,0.0,30,0.00,,---,0.00,VWS V14.01,2013-03-14 04:00:00,
2013-03-13 23:05:00,34.7,6.4,29.68,NNW,338,0.0,0.0,30,0.00,,---,0.00,VWS V14.01,2013-03-14 04:05:00,
2013-03-13 23:10:00,34.5,6.3,29.68,NNW,338,0.0,0.0,30,0.00,,---,0.00,VWS V14.01,2013-03-14 04:10:00,
2013-03-13 23:15:00,34.5,6.3,29.68,NNW,338,0.0,0.0,30,0.00,,---,0.00,VWS V14.01,2013-03-14 04:15:00,
2013-03-13 23:20:00,34.3,6.1,29.68,NNW,338,0.0,0.0,30,0.00,,---,0.00,VWS V14.01,2013-03-14 04:20:00,
2013-03-13 23:25:00,34.2,6.0,29.68,NNW,338,0.0,0.0,30,0.00,,---,0.00,VWS V14.01,2013-03-14 04:25:00,
2013-03-13 23:30:00,34.2,6.0,29.68,NNW,338,0.0,0.0,30,0.00,,---,0.00,VWS V14.01,2013-03-14 04:30:00,
2013-03-13 23:35:00,34.0,5.8,29.68,NNW,338,0.0,0.0,30,0.00,,---,0.00,VWS V14.01,2013-03-14 04:35:00,
2013-03-13 23:40:00,33.8,5.7,29.68,NNW,338,0.0,0.0,30,0.00,,---,0.00,VWS V14.01,2013-03-14 04:40:00,
2013-03-13 23:45:00,33.8,5.7,29.68,NNW,338,0.0,0.0,30,0.00,,---,0.00,VWS V14.01,2013-03-14 04:45:00,
2013-03-13 23:50:00,33.8,5.7,29.68,NNW,338,0.0,0.0,30,0.00,,---,0.00,VWS V14.01,2013-03-14 04:50:00,
2013-03-13 23:55:00,33.6,5.5,29.68,NNW,338,0.0,0.0,30,0.00,,---,0.00,VWS V14.01,2013-03-14 04:55:00,